Helicity
216 198 215 207 191 204 189 208 199 160 162 166 173 166 159 155 151 181 187 192 237 222 195 208 172 157 163
196 253 275 217 211 197 211 232 231 176 159 169 181 179 177 172 180 181 208 241 210 199 250 184 180 137 148
224 173 199 237 213 219 210 218 236 200 177 163 175 178 191 199 214 202 253 164 180 208 203 200 219 159 163
241 222 206 213 228 201 181 208 208 234 202 227 218 183 202 254 225 283 244 236 237 208 168 210 215 151 186
254 244 261 300 293 234 224 185 206 216 223 245 254 281 233 229 266 287 271 239 240 199 155 199 191 175 159
205 230 211 242 220 232 213 269 172 152 175 183 198 242 256 288 251 204 211 232 207 176 174 157 216 198 143
257 222 183 207 213 172 264 245 360 247 211 230 216 260 218 259 140 158 163 154 149 172 188 145 209 201 163
233 298 328 240 285 283 219 232 359 294 271 304 275 277 251 240 144 151 123 94 122 112 144 170 209 191 168
193 163 194 144 161 180 201 240 251 237 231 327 293 250 228 229 232 120 122 114 119 127 163 182 177 217 229
204 171 191 178 174 211 195 197 226 256 204 243 253 213 193 178 202 194 189 104 113 131 182 185 211 359 444
131 133 125 127 144 157 177 182 176 200 193 241 220 239 251 252 206 193 179 182 202 219 204 209 311 373 386
129 130 126 126 121 155 194 221 219 194 206 263 253 238 254 267 256 247 206 230 298 378 320 348 329 215 254
138 145 134 145 145 147 159 179 187 225 239 250 305 309 309 305 269 231 216 198 254 323 339 431 366 276 284
127 120 105 111 125 127 148 154 176 174 183 189 216 286 298 288 266 246 246 213 201 260 304 346 320 261 281
126 118 110 100 101 117 135 138 148 147 158 189 184 197 232 268 274 271 258 257 229 268 293 296 267 225 194
123 121 121 119 121 125 119 136 147 148 158 191 219 228 245 230 189 216 213 234 246 246 291 291 258 196 172
98 104 117 112 118 116 135 149 152 150 154 204 203 190 194 193 202 126 193 206 220 238 251 276 226 177 153
Wind_Speed
65 63 59 57 56 52 51 50 50 47 46 46 46 46 47 47 47 46 47 47 49 46 47 51 48 46 45
72 69 64 64 64 63 60 56 55 56 54 53 52 52 52 52 51 50 50 51 53 49 52 48 48 45 43
81 76 75 68 70 68 67 65 64 65 64 61 59 58 57 55 54 55 54 52 53 47 47 48 46 43 42
79 78 77 75 74 78 81 73 75 69 68 65 65 63 60 57 58 58 52 52 52 51 46 45 43 39 42
85 84 83 82 83 80 83 83 81 74 77 73 70 69 67 58 60 57 54 52 50 49 47 43 40 40 38
85 89 90 85 83 86 89 90 97 72 76 83 67 71 63 59 54 55 54 51 50 47 45 42 39 39 40
87 93 88 80 85 85 83 79 78 75 71 91 64 70 60 61 59 56 53 51 49 46 43 42 40 41 38
91 88 91 96 88 87 87 85 83 73 67 82 73 80 72 65 60 57 53 49 48 46 45 42 40 40 39
83 88 89 88 85 87 89 88 96 87 71 79 83 81 75 70 62 56 54 53 50 46 43 40 39 38 39
91 90 83 83 81 80 83 90 88 92 69 70 76 73 86 68 65 60 58 53 49 45 40 41 37 38 38
87 85 82 80 80 77 75 75 80 82 70 66 75 71 71 78 72 65 60 56 50 47 44 43 40 38 38
84 85 86 85 84 83 82 80 76 80 78 67 76 73 77 81 83 69 62 60 54 52 51 40 35 36 32
87 87 85 87 88 88 85 83 82 80 77 70 73 76 75 82 81 74 73 63 55 50 46 40 37 36 31
87 87 85 85 89 87 89 87 87 84 74 70 70 69 78 76 73 75 67 68 55 49 46 40 36 35 36
91 92 91 90 90 86 87 87 86 88 85 74 66 64 65 68 72 67 63 62 55 47 42 42 38 36 37
88 90 91 90 92 89 85 85 87 85 83 76 70 67 65 63 55 60 55 52 45 39 39 41 41 36 35
88 88 90 88 92 90 88 85 85 83 80 73 68 66 71 72 60 45 50 45 40 38 37 36 37 36 37
Wind_Direction
303 305 305 304 306 305 305 303 302 297 295 296 297 298 300 300 301 302 303 306 311 311 315 321 324 324 327
302 303 301 303 302 302 302 301 299 300 297 296 296 297 298 298 299 300 302 305 306 305 310 315 318 320 322
299 302 304 305 304 303 302 301 301 300 299 299 296 295 295 296 297 299 300 300 304 303 308 311 315 315 317
298 300 302 304 304 303 302 303 302 302 300 298 298 296 293 293 295 298 296 298 301 303 303 306 311 310 315
296 298 300 300 301 303 302 303 303 303 302 301 300 301 298 296 297 297 296 296 296 299 300 301 304 307 312
297 297 299 301 301 301 300 303 302 305 303 303 303 300 301 302 299 296 295 291 292 291 296 295 298 301 308
300 302 304 306 306 303 301 305 306 306 306 303 301 304 307 305 302 298 295 293 291 289 289 293 294 299 303
302 305 303 306 309 306 306 304 305 307 304 305 307 305 309 306 303 299 298 294 291 289 289 290 292 295 299
305 307 308 307 308 306 303 304 304 303 302 303 307 308 309 307 306 301 298 295 293 288 288 288 290 294 300
307 308 308 309 310 309 307 303 303 303 305 304 308 310 309 314 312 310 307 300 296 290 286 290 288 296 301
308 310 311 311 312 312 310 306 304 302 307 306 308 309 308 310 312 312 309 306 301 296 291 289 287 296 299
310 310 311 311 311 311 309 307 304 302 304 300 304 302 303 305 306 310 307 302 301 299 298 293 292 296 293
310 310 311 311 311 311 310 308 306 305 304 300 298 299 298 301 304 306 306 304 302 300 296 287 292 298 290
311 312 312 313 312 313 311 311 308 307 308 305 301 299 298 298 299 302 304 305 308 300 295 290 290 294 294
312 311 311 312 312 313 312 311 308 308 308 309 307 303 300 300 299 299 300 302 303 303 298 293 291 291 289
315 314 312 312 312 313 312 310 309 309 309 309 309 307 305 303 298 299 301 303 303 301 301 292 292 290 292
315 315 314 314 314 313 312 312 310 309 309 308 307 304 302 300 305 297 297 300 302 300 301 300 298 293 291